Location: Chmeli�t?
(49.8978°N, 15.0526°E)
Time: 21:52:57
(UTC+00:00)

Cosmos 2237 - Pass Details

Date: 07 June 2020
Orbit: 844 x 858 km, 70.8° (Epoch: 04 July)

Event Time Altitude Azimuth Distance (km) Brightness Sun altitude
Exits shadow 01:54:30 - 203° (SSW) 2,664 6.2 -7.5°
Reaches altitude 10° 01:55:00 10° 203° (SSW) 2,476 6.0 -7.5°
Maximum altitude 02:00:42 82° 117° (ESE) 870 4.3 -6.9°
Drops below altitude 10° 02:06:27 10° 31° (NNE) 2,501 8.3 -6.3°
Sets 02:08:55 0° 30° (NNE) 3,442 9.4 -6.0°
